Weather in Roanne

France     46°02′35″N   4°04′19″E
temp.,
°C
wind,
m/s
gust,
m/s
humid.,
%
clouds,
%
prec.,
mm/h
press.,
hPa
HPBL,
m
14 april, wed
wed1423:00−1nw22805 0.0 102925
02:00−2wnw33808 0.0 102944
05:00−3nw33800 0.0 102833
08:00−2nw3470100 0.0 1028156
11:00+4n46480 0.0 1027887
14:00+8nne66381 0.0 10251700
17:00+8nne674013 0.0 10241874
20:00+5nne386125 0.0 1024193
15 april, thu
thu1523:00−1nw33802 0.0 102739
02:00−2nw33881 0.0 102746
05:00−2nw36911 0.0 102689
08:00−2nnw37815 0.0 1026263
11:00+6nne57502 0.0 10251142
14:00+9nne66385 0.0 10231910
17:00+9nne563817 0.0 10212108
20:00+5n386019 0.0 1022212
16 april, fri
fri1623:000nw367630 0.0 102499
02:00−1nw36841 0.0 102287
05:00−2nw35905 0.0 102266
08:00−1nw37804 0.0 1022308
11:00+5n57545 0.0 1022966
14:00+8nne6743100 0.0 10192343
17:00+8nne674869 0.1 10191800
20:00+5n4972100 0.3 1020362
17 april, sat
sat1723:00+4nnw5107479 0.0 1021476
02:000nw499059 0.0 1022221
05:00−2nw379526 0.0 1022147
08:00−1nw37877 0.0 1022283
11:00+6n57647 0.0 1021772
14:00+10n575054 0.0 10191752
17:00+9n796774 0.1 10181259
20:00+6nnw5107962 0.3 1020589
18 april, sun
sun1823:00+5nnw598194 0.1 1021515
02:00+4nnw4881100 0.1 1021364
05:00+2nw489125 0.0 1022162
08:00+2nw37885 0.0 1022255
11:00+8n696416 0.0 10211101
14:00+9n5861100 0.1 10201490
17:00+10n586483 0.0 10201295
20:00+8n487766 0.1 1021432